This is the latest recevied weather packets stored in our database for station/object IW0REF-9. If no packets are shown the sender has not sent any weather packets the latest 10 day(s).
| Time | Temp. | Humidity | Pressure | Rain* | Wind** | Luminosity | Snow |
|---|---|---|---|---|---|---|---|
| 1777660279 | 15.56° C | 16% | 1004.9 hPa | - | - | - | - |
| 1777659379 | 18.33° C | 14% | 1004.7 hPa | - | - | - | - |
| 1777658478 | 21.11° C | 14% | 1004.7 hPa | - | - | - | - |
| 1777657578 | 22.78° C | 13% | 1004.7 hPa | - | - | - | - |
| 1777656677 | 23.89° C | 13% | 1004.6 hPa | - | - | - | - |
| 1777655777 | 23.89° C | 13% | 1004.3 hPa | - | - | - | - |
| 1777654877 | 24.44° C | 13% | 1004.3 hPa | - | - | - | - |
| 1777653976 | 24.44° C | 13% | 1004.2 hPa | - | - | - | - |
| 1777653076 | 25° C | 12% | 1004 hPa | - | - | - | - |
| 1777650373 | 29.44° C | 10% | 1003.8 hPa | - | - | - | - |
| 1777649473 | 30.56° C | 10% | 1003.7 hPa | - | - | - | - |
| 1777647671 | 29.44° C | 11% | 1003.8 hPa | - | - | - | - |
| 1777646771 | 28.89° C | 11% | 1003.8 hPa | - | - | - | - |
| 1777645871 | 28.89° C | 11% | 1003.8 hPa | - | - | - | - |
| 1777644970 | 28.89° C | 11% | 1003.7 hPa | - | - | - | - |
| 1777644070 | 28.89° C | 12% | 1003.7 hPa | - | - | - | - |
| 1777643169 | 28.89° C | 12% | 1003.8 hPa | - | - | - | - |
| 1777642269 | 28.33° C | 13% | 1003.8 hPa | - | - | - | - |
| 1777641368 | 27.22° C | 14% | 1004 hPa | - | - | - | - |
| 1777640468 | 26.67° C | 15% | 1004.1 hPa | - | - | - | - |
| 1777639567 | 25.56° C | 16% | 1004 hPa | - | - | - | - |
| 1777638666 | 25° C | 16% | 1004.2 hPa | - | - | - | - |
| 1777637765 | 23.89° C | 17% | 1004.1 hPa | - | - | - | - |
| 1777636865 | 23.33° C | 16% | 1004.2 hPa | - | - | - | - |
| 1777635964 | 22.78° C | 17% | 1004.3 hPa | - | - | - | - |
* Rain since midnight (hover to see other rain measurements)
** Current wind speed in m/s (hover to see current wind gust speed)